User: anonymous   Login
Location: Newark
(33.6333°S, 78.8500°W)
Time: 22:45:51
(UTC+00:00)
Language:

Explorer 7 - Orbit

View from above orbital plane
View from above orbital plane
View from above satellite
View from above satellite

Ground track
Ground track

The orbit data is extracted from the following two-line orbital elements,

1    22U 59009A   19262.72791431  .00000040  00000-0  26108-4 0  9996
2    22  50.2848 296.8152 0140184 300.6525  58.0665 14.94924590184678
Epoch (UTC): 19 September 2019 17:28:11
Eccentricity: 0.0140184
inclination: 50.2848°
perigee height: 485 km
apogee height: 680 km
right ascension of ascending node: 296.8152°
argument of perigee: 300.6525°
revolutions per day: 14.94924590
mean anomaly at epoch: 58.0665°
orbit number at epoch: 18467

The dashed part of the orbit path shows where the satellite is in the earth's shadow,  

DLR